STARLINK-36329

Last updated on Sat Mar 14 2026 00:02:07 GMT+0000 (Coordinated Universal Time)

1 67739U 26026U 26072.58334491 -.01375511 00000+0 -45347-1 0 9990 2 67739 97.2848 127.2231 0001681 62.6972 110.7886 15.34441339 5944

Satellite not in orbit